This is the latest recevied weather packets stored in our database for station/object DJ5NF-10. If no packets are shown the sender has not sent any weather packets the latest 10 day(s).
| Time | Temp. | Humidity | Pressure | Rain* | Wind** | Luminosity | Snow |
|---|---|---|---|---|---|---|---|
| 1778151391 | 19.44° C | 38% | 1011.3 hPa | - | - | - | - |
| 1778148690 | 18.89° C | 39% | 1011.3 hPa | - | - | - | - |
| 1778145994 | 18.89° C | 38% | 1010.9 hPa | - | - | - | - |
| 1778143293 | 18.33° C | 39% | 1010.7 hPa | - | - | - | - |
| 1778140593 | 18.33° C | 39% | 1010.5 hPa | - | - | - | - |
| 1778137893 | 17.78° C | 39% | 1010.3 hPa | - | - | - | - |
| 1778135193 | 17.78° C | 39% | 1010.3 hPa | - | - | - | - |
| 1778132493 | 17.78° C | 39% | 1009.8 hPa | - | - | - | - |
| 1778129793 | 17.78° C | 39% | 1009.4 hPa | - | - | - | - |
| 1778127093 | 17.78° C | 39% | 1008.8 hPa | - | - | - | - |
| 1778121693 | 17.78° C | 39% | 1008.5 hPa | - | - | - | - |
| 1778118992 | 17.78° C | 39% | 1008.2 hPa | - | - | - | - |
| 1778116292 | 18.33° C | 39% | 1007.8 hPa | - | - | - | - |
| 1778113592 | 18.33° C | 39% | 1007.8 hPa | - | - | - | - |
| 1778110892 | 18.33° C | 39% | 1007.8 hPa | - | - | - | - |
| 1778108191 | 18.33° C | 39% | 1007.4 hPa | - | - | - | - |
| 1778105491 | 18.33° C | 39% | 1007.2 hPa | - | - | - | - |
| 1778102791 | 18.33° C | 39% | 1007.1 hPa | - | - | - | - |
| 1778100091 | 18.33° C | 39% | 1006.9 hPa | - | - | - | - |
| 1778097391 | 18.33° C | 39% | 1006.7 hPa | - | - | - | - |
| 1778094691 | 18.89° C | 39% | 1006.4 hPa | - | - | - | - |
| 1778091991 | 18.89° C | 39% | 1005.9 hPa | - | - | - | - |
| 1778089291 | 18.89° C | 39% | 1005.2 hPa | - | - | - | - |
| 1778086591 | 18.89° C | 39% | 1004.9 hPa | - | - | - | - |
| 1778083891 | 18.89° C | 39% | 1004.6 hPa | - | - | - | - |
* Rain since midnight (hover to see other rain measurements)
** Current wind speed in m/s (hover to see current wind gust speed)